TimeCST,TemperatureF,Dew PointF,Humidity,Sea Level PressureIn,VisibilityMPH,Wind Direction,Wind SpeedMPH,Gust SpeedMPH,PrecipitationIn,Events,Conditions,WindDirDegrees,DateUTC
12:53 AM,36.0,26.1,67,30.09,10.0,SE,4.6,-,N/A,,Scattered Clouds,130,2013-03-04 06:53:00
1:53 AM,36.0,26.1,67,30.06,10.0,ESE,6.9,-,N/A,,Partly Cloudy,120,2013-03-04 07:53:00
2:53 AM,37.0,25.0,62,30.04,10.0,ESE,10.4,-,N/A,,Clear,120,2013-03-04 08:53:00
3:53 AM,37.0,24.1,59,30.03,10.0,ESE,10.4,-,N/A,,Clear,120,2013-03-04 09:53:00
4:53 AM,37.4,24.8,60,30.02,10.0,ESE,12.7,19.6,N/A,,Clear,120,2013-03-04 10:53:00
5:53 AM,37.9,23.0,55,29.99,10.0,SE,16.1,-,N/A,,Clear,130,2013-03-04 11:53:00
6:53 AM,37.9,24.1,57,29.99,10.0,ESE,16.1,-,N/A,,Clear,120,2013-03-04 12:53:00
7:53 AM,39.9,24.1,53,29.98,10.0,SE,16.1,25.3,N/A,,Clear,130,2013-03-04 13:53:00
8:53 AM,43.0,25.0,49,29.95,10.0,SE,19.6,29.9,N/A,,Clear,130,2013-03-04 14:53:00
9:53 AM,44.1,27.0,51,29.94,10.0,SSE,18.4,-,N/A,,Clear,150,2013-03-04 15:53:00
10:53 AM,46.9,28.9,50,29.91,10.0,SSE,20.7,28.8,N/A,,Clear,150,2013-03-04 16:53:00
11:53 AM,52.0,32.0,47,29.87,10.0,SSE,18.4,26.5,N/A,,Overcast,160,2013-03-04 17:53:00
12:53 PM,51.1,33.1,50,29.83,10.0,SSE,13.8,-,N/A,,Overcast,150,2013-03-04 18:53:00
1:53 PM,53.1,34.0,48,29.79,10.0,SSE,13.8,20.7,N/A,,Overcast,160,2013-03-04 19:53:00
2:53 PM,52.0,35.1,53,29.80,10.0,SE,9.2,-,N/A,,Overcast,140,2013-03-04 20:53:00
3:53 PM,53.1,36.0,52,29.78,10.0,SSE,4.6,-,N/A,,Overcast,150,2013-03-04 21:53:00
4:53 PM,53.1,37.0,55,29.78,10.0,ESE,8.1,-,N/A,,Overcast,120,2013-03-04 22:53:00
5:53 PM,53.1,33.1,47,29.79,10.0,East,11.5,-,N/A,,Overcast,80,2013-03-04 23:53:00
6:53 PM,51.1,37.0,59,29.80,10.0,ESE,6.9,-,N/A,,Overcast,110,2013-03-05 00:53:00
7:53 PM,50.0,39.0,66,29.80,10.0,NE,8.1,-,0.00,,Overcast,50,2013-03-05 01:53:00
8:53 PM,48.9,39.9,71,29.80,10.0,ESE,5.8,-,0.00,Rain,Light Rain,110,2013-03-05 02:53:00
9:53 PM,46.9,41.0,80,29.80,10.0,East,3.5,-,0.00,Rain,Light Rain,100,2013-03-05 03:53:00
10:53 PM,46.9,43.0,86,29.79,10.0,Calm,Calm,-,0.01,,Overcast,0,2013-03-05 04:53:00
11:53 PM,46.0,42.1,86,29.77,10.0,SE,8.1,-,0.00,,Overcast,130,2013-03-05 05:53:00